Date String (YYYY-MM-DD hh:mm:ss) UTC,Instrument flags,Ambient pressure (hPa),Sample flow (lpm),Bypass flow (lpm),Sample temperature (°C),Ambient temperature (°C),ASC tube jacket temperature (°C),LED temperature (°C),Box temperature (°C),Sample RH (%),Span deviation,Mass concentration (μg/m³),Mass concentration (μg/m³),Mass concentration (μg/m³)
DateTimeUTC,F1_M11,P_M11,Q1_M11,Q2_M11,T1_M11,T2_M11,T3_M11,T4_M11,T5_M11,U1_M11,ZSPAN_M11,X0_M11,X2_M11,X1_M11
2022-07-04 12:00:00,,0825.3,5.00,0.00,29.7,28.4,00.0,38.6,31.5,26.3,0000.0,0006.51,0003.21,0002.76
2022-07-04 12:01:00,,0825.3,5.01,0.00,29.7,28.4,00.0,38.6,31.5,26.3,0000.0,0006.07,0003.21,0002.77
2022-07-04 12:02:00,,0825.3,4.99,0.00,29.7,28.5,00.0,38.6,31.6,26.3,0000.0,0006.17,0003.23,0002.79
2022-07-04 12:03:00,,0825.3,5.00,0.00,29.7,28.5,00.0,38.6,31.6,26.3,0000.0,0006.27,0003.25,0002.81
2022-07-04 12:04:00,,0825.3,5.00,0.00,29.7,28.5,00.0,38.6,31.6,26.3,0000.0,0006.18,0003.24,0002.81
2022-07-04 12:05:00,,0825.3,5.00,0.00,29.7,28.6,00.0,38.6,31.6,26.3,0000.0,0006.22,0003.26,0002.82
2022-07-04 12:06:00,,0825.3,4.99,0.00,29.7,28.6,00.0,38.6,31.6,26.0,0000.0,0007.71,0003.31,0002.83
2022-07-04 12:07:00,,0825.3,5.01,0.00,29.7,28.6,00.0,38.6,31.6,26.0,0000.0,0007.97,0003.35,0002.83
2022-07-04 12:08:00,,0825.4,5.00,0.00,29.7,28.6,00.0,38.6,31.6,25.9,0000.0,0008.03,0003.37,0002.84
2022-07-04 12:09:00,,0825.4,5.00,0.00,29.7,28.6,00.0,38.6,31.6,25.8,0000.0,0008.05,0003.38,0002.83
2022-07-04 12:10:00,,0825.4,5.01,0.00,29.7,28.6,00.0,38.6,31.6,25.3,0000.0,0008.05,0003.38,0002.82
2022-07-04 12:11:00,,0825.3,5.00,0.00,29.7,28.7,00.0,38.6,31.6,25.1,0000.0,0007.49,0003.41,0002.84
2022-07-04 12:12:00,,0825.4,5.00,0.00,29.7,28.7,00.0,38.6,31.6,25.3,0000.0,0007.65,0003.44,0002.83
2022-07-04 12:13:00,,0825.3,5.00,0.00,29.8,28.7,00.0,38.6,31.6,25.4,0000.0,0007.99,0003.43,0002.82
2022-07-04 12:14:00,,0825.3,5.00,0.00,29.8,28.7,00.0,38.6,31.6,25.2,0000.0,0007.99,0003.41,0002.80
2022-07-04 12:15:00,,0825.3,4.99,0.00,29.8,28.7,00.0,38.6,31.7,25.0,0000.0,0008.04,0003.40,0002.78
2022-07-04 12:16:00,,0825.3,5.00,0.00,29.8,28.7,00.0,38.6,31.7,24.9,0000.0,0008.14,0003.39,0002.74
2022-07-04 12:17:00,,0825.3,5.00,0.00,29.8,28.8,00.0,38.7,31.7,24.8,0000.0,0007.34,0003.37,0002.70
2022-07-04 12:18:00,,0825.4,5.00,0.00,29.8,28.8,00.0,38.7,31.7,24.8,0000.0,0006.78,0003.32,0002.67
2022-07-04 12:19:00,,0825.3,5.00,0.00,29.8,28.8,00.0,38.6,31.7,24.6,0000.0,0006.74,0003.30,0002.65
2022-07-04 12:20:00,,0825.4,5.01,0.00,29.8,28.8,00.0,38.7,31.7,24.3,0000.0,0006.86,0003.31,0002.64
2022-07-04 12:21:00,,0825.4,4.99,0.00,29.9,28.8,00.0,38.7,31.7,24.3,0000.0,0007.01,0003.29,0002.60
2022-07-04 12:22:00,,0825.4,5.00,0.00,29.9,28.9,00.0,38.7,31.7,24.2,0000.0,0006.93,0003.24,0002.56
2022-07-04 12:23:00,,0825.4,5.00,0.00,29.9,28.9,00.0,38.7,31.8,24.2,0000.0,0006.74,0003.19,0002.54
2022-07-04 12:24:00,,0825.4,4.99,0.00,29.9,28.9,00.0,38.7,31.8,24.3,0000.0,0005.92,0003.19,0002.53
2022-07-04 12:25:00,,0825.4,5.00,0.00,29.9,28.9,00.0,38.7,31.8,24.1,0000.0,0006.04,0003.21,0002.51
2022-07-04 12:26:00,,0825.4,5.01,0.00,29.9,28.9,00.0,38.7,31.8,24.0,0000.0,0006.07,0003.20,0002.50
2022-07-04 12:27:00,,0825.4,5.00,0.00,29.9,29.0,00.0,38.7,31.8,23.9,0000.0,0005.92,0003.20,0002.51
2022-07-04 12:28:00,,0825.4,5.01,0.00,30.0,29.0,00.0,38.7,31.9,24.0,0000.0,0005.98,0003.20,0002.53
2022-07-04 12:29:00,,0825.5,5.00,0.00,30.0,29.0,00.0,38.7,31.9,24.1,0000.0,0006.03,0003.22,0002.54
2022-07-04 12:30:00,,0825.5,4.99,0.00,30.0,29.0,00.0,38.8,31.9,24.1,0000.0,0006.68,0003.25,0002.55
2022-07-04 12:31:00,,0825.5,5.00,0.00,30.0,29.0,00.0,38.8,31.9,24.1,0000.0,0006.54,0003.21,0002.55
2022-07-04 12:32:00,,0825.5,5.00,0.00,30.0,29.1,00.0,38.8,31.9,24.0,0000.0,0006.29,0003.24,0002.59
2022-07-04 12:33:00,,0825.5,5.00,0.00,30.0,29.1,00.0,38.8,32.0,23.9,0000.0,0006.59,0003.30,0002.60
2022-07-04 12:34:00,,0825.5,5.00,0.00,30.1,29.1,00.0,38.8,32.0,23.6,0000.0,0006.74,0003.31,0002.59
2022-07-04 12:35:00,,0825.5,4.99,0.00,30.1,29.1,00.0,38.8,32.0,23.6,0000.0,0006.62,0003.28,0002.58
2022-07-04 12:36:00,,0825.5,5.01,0.00,30.1,29.1,00.0,38.8,32.0,23.6,0000.0,0006.41,0003.25,0002.57
2022-07-04 12:37:00,,0825.5,4.99,0.00,30.1,29.1,00.0,38.9,32.0,23.8,0000.0,0007.17,0003.28,0002.57
2022-07-04 12:38:00,,0825.5,4.99,0.00,30.1,29.1,00.0,38.9,32.0,23.9,0000.0,0007.97,0003.28,0002.58
2022-07-04 12:39:00,,0825.6,5.00,0.00,30.1,29.1,00.0,38.9,32.0,23.8,0000.0,0008.12,0003.29,0002.58
2022-07-04 12:40:00,,0825.6,5.00,0.00,30.1,29.2,00.0,38.9,32.0,24.0,0000.0,0008.11,0003.26,0002.57
2022-07-04 12:41:00,,0825.6,4.99,0.00,30.1,29.2,00.0,38.9,32.0,24.2,0000.0,0007.71,0003.22,0002.56
2022-07-04 12:42:00,,0825.6,5.00,0.00,30.2,29.2,00.0,38.9,32.0,24.1,0000.0,0007.65,0003.22,0002.55
2022-07-04 12:43:00,,0825.6,5.00,0.00,30.2,29.2,00.0,38.9,32.0,24.0,0000.0,0007.61,0003.22,0002.54
2022-07-04 12:44:00,,0825.6,5.00,0.00,30.2,29.2,00.0,38.9,32.0,24.0,0000.0,0007.43,0003.18,0002.54
2022-07-04 12:45:00,,0825.6,5.01,0.00,30.2,29.1,00.0,38.9,32.1,24.0,0000.0,0007.30,0003.17,0002.55
2022-07-04 12:46:00,,0825.6,5.00,0.00,30.2,28.5,00.0,38.9,32.0,23.9,0000.0,0007.26,0003.16,0002.54
2022-07-04 12:47:00,,0825.6,4.99,0.00,30.1,27.7,00.0,38.8,31.8,24.0,0000.0,0007.28,0003.15,0002.52
2022-07-04 12:48:00,,0825.6,5.00,0.00,30.1,27.4,00.0,38.8,31.7,24.3,0000.0,0006.22,0003.09,0002.52
2022-07-04 12:49:00,,0825.6,5.00,0.00,30.0,27.4,00.0,38.8,31.6,24.4,0000.0,0004.93,0003.08,0002.50
2022-07-04 12:50:00,,0825.6,4.99,0.00,29.9,27.5,00.0,38.8,31.5,24.6,0000.0,0004.50,0003.08,0002.48
2022-07-04 12:51:00,,0825.6,5.00,0.00,29.9,27.6,00.0,38.7,31.5,24.7,0000.0,0004.48,0003.07,0002.48
2022-07-04 12:52:00,,0825.6,5.00,0.00,29.8,27.8,00.0,38.7,31.5,24.9,0000.0,0004.48,0003.08,0002.47
2022-07-04 12:53:00,,0825.6,5.01,0.00,29.8,27.9,00.0,38.7,31.5,25.1,0000.0,0004.80,0003.12,0002.47
2022-07-04 12:54:00,,0825.6,5.00,0.00,29.8,28.1,00.0,38.7,31.5,24.7,0000.0,0004.79,0003.10,0002.46
2022-07-04 12:55:00,,0825.6,5.00,0.00,29.8,28.2,00.0,38.7,31.6,24.2,0000.0,0004.94,0003.11,0002.44
2022-07-04 12:56:00,,0825.6,5.01,0.00,29.8,28.3,00.0,38.7,31.6,24.7,0000.0,0004.99,0003.11,0002.41
2022-07-04 12:57:00,,0825.6,5.00,0.00,29.8,28.4,00.0,38.6,31.6,25.0,0000.0,0005.12,0003.14,0002.42
2022-07-04 12:58:00,,0825.7,5.00,0.00,29.8,28.5,00.0,38.6,31.6,24.4,0000.0,0005.09,0003.14,0002.42
2022-07-04 12:59:00,,0825.7,4.99,0.00,29.8,28.5,00.0,38.6,31.7,24.3,0000.0,0005.06,0003.13,0002.40
